Tracking 30986 objects as of 9-Jul-2025
HD Live streaming from Space Station
objects crossing your sky now

PEGASUS DEB

Track PEGASUS DEB now!
10-day predictions


NORAD ID: 39924
Int'l Code: 1994-029AFX
Perigee: 547.5 km
Apogee: 703.3 km
Inclination: 81.9 °
Period: 97.1 minutes
Semi major axis: 6996 km
RCS: 0.0161 m2 (small)
Launch date: May 19, 1994
Source: United States (US)
Launch site: AIR FORCE WESTERN TEST RANGE (AFWTR)

Note: This is SATELLITE DEBRIS
Your satellite tracking list
Your tracking list is empty




NASA's NSSDC Master Catalog

Two Line Element Set (TLE):
1 39924U 94029AFX 25182.15812048  .00003244  00000-0  35089-3 0  9999
2 39924  81.8548 145.6233 0111373 341.8610  17.8641 14.83516840162811
Source of the keplerian elements: AFSPC